Location: Emblem
(62.4273°N, 6.4710°E)
Time: 05:26:21
(UTC+02:00)

NOAA 15 - Visible Passes

Search period start: 29 March 2023 00:00
Search period end: 08 April 2023 00:00
Orbit: 796 x 812 km, 98.6° (Epoch: 28 March)

Date Brightness Start Highest point End Pass type
(mag) Time Alt. Az. Time Alt. Az. Time Alt. Az.
29 Mar 7.3 21:48:36 10° SW 21:52:32 21° W 21:56:28 10° NW visible
30 Mar 6.8 21:22:12 10° SSW 21:26:46 28° W 21:31:21 10° NNW visible
31 Mar 7.9 22:41:33 10° W 22:42:25 10° WNW 22:43:17 10° WNW visible
01 Apr 7.5 22:13:28 10° WSW 22:16:28 15° W 22:19:29 10° NW visible
02 Apr 7.3 21:46:39 10° SW 21:50:38 21° W 21:54:37 10° NW visible
03 Apr 6.8 21:20:17 10° SSW 21:24:52 29° W 21:29:28 10° NNW visible
04 Apr 7.8 22:39:20 10° W 22:40:30 11° WNW 22:41:39 10° WNW visible
05 Apr 7.4 22:11:29 10° WSW 22:14:33 15° W 22:17:39 10° NW visible
06 Apr 7.2 21:44:41 10° SW 21:48:42 22° W 21:52:45 10° NW visible
07 Apr 6.7 21:18:20 10° SSW 21:22:57 30° W 21:27:35 10° NNW visible
